This is the latest recevied weather packets stored in our database for station/object KK6LVQ-13. If no packets are shown the sender has not sent any weather packets the latest 10 day(s).
| Time | Temp. | Humidity | Pressure | Rain* | Wind** | Luminosity | Snow |
|---|---|---|---|---|---|---|---|
| 1777908371 | 10° C | 99% | 1020.7 hPa | 0 mm | - | 170 W/m² | - |
| 1777908067 | 9.44° C | 99% | 1020.8 hPa | 0 mm | - | 150 W/m² | - |
| 1777907763 | 8.33° C | 99% | 1020.8 hPa | 0 mm | - | 134 W/m² | - |
| 1777907457 | 7.78° C | 99% | 1020.7 hPa | 0 mm | - | 122 W/m² | - |
| 1777907155 | 7.22° C | 99% | 1020.9 hPa | 0 mm | - | 62 W/m² | - |
| 1777906852 | 7.22° C | 99% | 1020.8 hPa | 0 mm | - | 70 W/m² | - |
| 1777906549 | 6.67° C | 99% | 1020.7 hPa | 0 mm | - | 74 W/m² | - |
| 1777906244 | 6.67° C | 99% | 1020.7 hPa | 0 mm | - | 89 W/m² | - |
| 1777905941 | 6.67° C | 99% | 1020.7 hPa | 0 mm | - | 85 W/m² | - |
| 1777905638 | 6.67° C | 99% | 1020.8 hPa | 0 mm | - | 90 W/m² | - |
| 1777905335 | 6.67° C | 99% | 1020.6 hPa | 0 mm | - | 77 W/m² | - |
| 1777905033 | 6.67° C | 99% | 1020.7 hPa | 0 mm | - | 72 W/m² | - |
| 1777904730 | 6.67° C | 99% | 1020.7 hPa | 0 mm | - | 62 W/m² | - |
| 1777904427 | 6.67° C | 99% | 1020.7 hPa | 0 mm | - | 51 W/m² | - |
| 1777904123 | 6.67° C | 99% | 1020.7 hPa | 0 mm | - | 50 W/m² | - |
| 1777903821 | 6.67° C | 99% | 1020.7 hPa | 0 mm | - | 41 W/m² | - |
| 1777903517 | 6.11° C | 99% | 1020.8 hPa | 0 mm | - | 35 W/m² | - |
| 1777903214 | 6.11° C | 99% | 1020.6 hPa | 0 mm | - | 27 W/m² | - |
| 1777902910 | 6.11° C | 99% | 1020.6 hPa | 0 mm | - | 24 W/m² | - |
| 1777902607 | 6.11° C | 99% | 1020.6 hPa | 0 mm | - | 21 W/m² | - |
| 1777902304 | 6.11° C | 99% | 1020.5 hPa | 0 mm | - | 17 W/m² | - |
| 1777902001 | 5.56° C | 99% | 1020.5 hPa | 0 mm | - | 15 W/m² | - |
| 1777901699 | 5.56° C | 99% | 1020.4 hPa | 0 mm | - | 12 W/m² | - |
| 1777901396 | 5.56° C | 99% | 1020.5 hPa | 0 mm | - | 9 W/m² | - |
| 1777901094 | 6.11° C | 99% | 1020.4 hPa | 0 mm | - | 6 W/m² | - |
* Rain latest hour (hover to see other rain measurements)
** Current wind speed in m/s (hover to see current wind gust speed)